[[{"header":{"parameterUnit":"m.s-1","parameterCategory":1,"la1":30.2991,"la2":30.254,"lo1":-89.0895,"lo2":-89.0444,"dy":0.0017,"dx":0.0017,"nx":28,"ny":28,"refTime":"2024-04-23T09:00:00:Z","depth":0,"parameterNumber":2,"parameterNumberName":"U-component_of_WINDS"},"data":[0,0,0,0,0,0,0,0,0,0,0,0,0,0,0,0,0,0,0,0,0,0,0,0,0,0,0,0,0,0,0,0,0,0,0,0,0,0,0,0,0,0,0,0,0,0,0,0,0,0,0,0,0,0,0,0,0,0,0.2809,0.281,0,0.2926,0.2928,0.2929,0.299,0.299,0.299,0.299,0.311,0.3113,0.3116,0,0,0,0,0,0,0,0,0,0,0,0,0,0.2636,0.2638,0.2809,0.281,0.2812,0.2926,0.2928,0.2929,0.299,0.299,0.299,0.299,0.3109,0.3112,0.3116,0,0,0,0,0,0,0,0,0,0,0,0,0,0.2728,0.2639,0.2809,0.2856,0.2861,0.2926,0.2928,0.293,0.299,0.299,0.299,0.299,0.3108,0.3112,0.3117,0.3143,0,0,0.3131,0.3133,0,0,0,0,0,0,0,0,0.2722,0.2734,0.2847,0.2853,0.2859,0.2944,0.2911,0.3001,0.299,0.2941,0.299,0.299,0.3054,0.3063,0.3085,0.3149,0.3154,0.3131,0.3134,0.3136,0.3138,0,0,0,0,0,0,0,0.2716,0.2729,0.2855,0.2849,0.2856,0.2871,0.2884,0.2928,0.2996,0.2945,0.295,0.2963,0.3058,0.3081,0.3088,0.3156,0.3131,0.3135,0.3138,0.314,0.3247,0.3247,0,0,0,0,0,0,0.2702,0.2723,0.2852,0.2859,0.2789,0.2874,0.2888,0.2916,0.2995,0.3007,0.2963,0.2965,0.3072,0.3083,0.3093,0.3129,0.3136,0.3141,0.3143,0.3247,0.3247,0.3247,0,0,0,0,0,0,0.2698,0.2713,0.2847,0.2793,0.2811,0.2876,0.2907,0.2918,0.2942,0.3009,0.3021,0.2974,0.3073,0.3086,0.313,0.3134,0.3143,0.3147,0.3247,0.3247,0.3247,0.3201,0,0,0,0,0,0,0.2693,0.2711,0.2722,0.2792,0.2813,0.2883,0.2908,0.2921,0.295,0.2954,0.3022,0.3034,0.3074,0.3123,0.3135,0.3141,0.3151,0.3247,0.3247,0.3247,0.3203,0.32,0.3197,0,0,0,0,0,0.2686,0.2705,0.2723,0.2738,0.2829,0.2883,0.2895,0.2941,0.295,0.2961,0.3004,0.3032,0.3132,0.3127,0.3141,0.3148,0.3247,0.3247,0.3247,0.3204,0.32,0.3197,0,0,0,0,0,0,0.2633,0.2715,0.2735,0.2777,0.2822,0.2893,0.2909,0.2936,0.2979,0.2982,0.3037,0.3052,0.3091,0.3124,0.3117,0.3178,0.3192,0.3195,0.3155,0.3152,0.3149,0.314,0.3155,0,0,0,0,0,0.2627,0.2664,0.2733,0.2763,0.2785,0.2843,0.2868,0.2899,0.2949,0.2968,0.3014,0.3061,0.3103,0.3129,0.3171,0.3208,0.3223,0.322,0.3217,0.3214,0.3216,0.3237,0.3236,0.3247,0.3247,0.3247,0,0,0.2613,0.2662,0.2682,0.2754,0.2793,0.2829,0.2858,0.2896,0.2924,0.2974,0.3018,0.3053,0.3109,0.3149,0.3169,0.3178,0.3216,0.3214,0.3212,0.3215,0.3237,0.3236,0.3235,0.3247,0.3247,0.3247,0,0,0.2607,0.2648,0.2677,0.2715,0.2774,0.2812,0.2819,0.2885,0.291,0.2956,0.2994,0.3027,0.3098,0.3136,0.3164,0.3171,0.3198,0.3184,0.3169,0.3189,0.3188,0.3188,0.319,0.319,0.3185,0.3185,0.3185,0,0.2582,0.264,0.2689,0.2725,0.2755,0.2801,0.2831,0.2865,0.2934,0.2954,0.2963,0.3052,0.3093,0.3142,0.3144,0.3166,0.3175,0.3176,0.3184,0.3184,0.3185,0.3187,0.3188,0.3183,0.3183,0.3183,0.3184,0,0.2606,0.2646,0.2662,0.2728,0.276,0.2792,0.2845,0.2872,0.29,0.2937,0.2982,0.3032,0.3085,0.3099,0.3128,0.3152,0.3156,0.3174,0.3189,0.318,0.3184,0.3185,0.318,0.3181,0.3181,0.3182,0,0,0.2571,0.2662,0.2668,0.2698,0.2765,0.2796,0.283,0.2882,0.2903,0.2949,0.2978,0.3037,0.3054,0.3086,0.3119,0.3136,0.3138,0.3152,0.3155,0.3147,0.3167,0.3153,0.3154,0.3156,0.3156,0.3157,0.3163,0,0.2574,0.2638,0.2682,0.2729,0.2765,0.2809,0.2839,0.2883,0.2918,0.2954,0.2993,0.3033,0.3053,0.3072,0.3092,0.3133,0.3143,0.3134,0.3184,0.3185,0.3168,0.3155,0.3141,0.3144,0.3164,0.3164,0.3165,0,0.2586,0.2631,0.268,0.2743,0.276,0.2786,0.2837,0.287,0.2921,0.2945,0.2981,0.3014,0.3052,0.3063,0.3115,0.3108,0.3131,0.3155,0.3156,0.3162,0.3174,0.3161,0.3146,0.3146,0.3167,0.3167,0.3167,0,0.2554,0.2627,0.2666,0.269,0.2764,0.2781,0.2813,0.2864,0.2892,0.2936,0.2955,0.3002,0.3028,0.3064,0.3109,0.3114,0.3156,0.3172,0.3177,0.3176,0.3184,0.3183,0.3172,0.3199,0.3199,0.3199,0.3199,0,0.2553,0.2582,0.2652,0.2676,0.2709,0.276,0.2791,0.2827,0.2871,0.2902,0.2943,0.2972,0.303,0.3065,0.3101,0.3138,0.3149,0.317,0.3179,0.3166,0.3163,0.3181,0.3182,0.3199,0.3199,0.3199,0.3199,0,0.2524,0.2572,0.2617,0.2684,0.2701,0.2723,0.2779,0.2804,0.2841,0.288,0.2892,0.295,0.2993,0.3042,0.3102,0.3126,0.316,0.3173,0.3143,0.3148,0.315,0.3149,0.3151,0.3153,0.3178,0.3178,0.3178,0,0.2519,0.2543,0.2611,0.2635,0.2666,0.2704,0.2732,0.2783,0.2811,0.287,0.2887,0.2933,0.2973,0.304,0.3088,0.3133,0.3148,0.3145,0.3155,0.3141,0.3147,0.3145,0.3147,0.3142,0.3142,0.3141,0.3141,0,0.2507,0.2529,0.2569,0.2617,0.265,0.2691,0.2732,0.2749,0.2808,0.2837,0.2882,0.2913,0.2973,0.3019,0.307,0.3102,0.3131,0.3138,0.3141,0.3128,0.3109,0.3119,0.3135,0.3137,0.3138,0.3138,0.3138,0.3138,0.249,0.2512,0.2564,0.2606,0.2643,0.2681,0.2707,0.2747,0.2786,0.2839,0.2866,0.291,0.296,0.3032,0.3063,0.3098,0.3107,0.3112,0.3114,0.3114,0.311,0.3104,0.3107,0.3108,0.3108,0.3108,0.3108,0,0.2479,0.2514,0.2553,0.261,0.2643,0.2668,0.2715,0.2741,0.278,0.2823,0.2861,0.2912,0.2956,0.3007,0.3054,0.3072,0.3086,0.3082,0.3081,0.3088,0.3099,0.3091,0.307,0.307,0.307,0.307,0.307,0.307,0.2477,0.2516,0.2544,0.2601,0.2636,0.268,0.2705,0.274,0.2775,0.283,0.2866,0.2899,0.2945,0.2996,0.3037,0.305,0.3066,0.3058,0.3075,0.3084,0.3088,0.3091,0.3083,0.3061,0.3061,0.3061,0.3061,0.3061]},{"header":{"parameterUnit":"m.s-1","parameterCategory":1,"la1":30.2991,"la2":30.254,"lo1":-89.0895,"lo2":-89.0444,"dy":0.0017,"dx":0.0017,"nx":28,"ny":28,"refTime":"2024-04-23T09:00:00:Z","depth":0,"parameterNumber":3,"parameterNumberName":"V-component_of_WINDS"},"data":[0,0,0,0,0,0,0,0,0,0,0,0,0,0,0,0,0,0,0,0,0,0,0,0,0,0,0,0,0,0,0,0,0,0,0,0,0,0,0,0,0,0,0,0,0,0,0,0,0,0,0,0,0,0,0,0,0,0,3.0411,3.041,0,3.037,3.037,3.0369,3.0342,3.0342,3.0342,3.0341,3.0295,3.0294,3.0293,0,0,0,0,0,0,0,0,0,0,0,0,0,3.0461,3.046,3.0411,3.041,3.041,3.037,3.037,3.0369,3.0342,3.0342,3.0341,3.0341,3.0295,3.0294,3.0293,0,0,0,0,0,0,0,0,0,0,0,0,0,3.0431,3.046,3.0411,3.0392,3.0389,3.0371,3.037,3.0369,3.0342,3.0342,3.0341,3.0341,3.0296,3.0294,3.0292,3.0288,0,0,3.0288,3.0287,0,0,0,0,0,0,0,0,3.0433,3.043,3.0395,3.0393,3.0391,3.0361,3.037,3.0342,3.0342,3.036,3.0341,3.0341,3.0317,3.0313,3.0306,3.0286,3.0284,3.0287,3.0286,3.0286,3.0285,0,0,0,0,0,0,0,3.0435,3.0431,3.0395,3.0394,3.0392,3.0384,3.0379,3.0365,3.034,3.0358,3.0356,3.0352,3.0315,3.0308,3.0305,3.0283,3.0287,3.0286,3.0285,3.0284,3.0257,3.0257,0,0,0,0,0,0,3.0441,3.0433,3.0396,3.0393,3.0412,3.0383,3.0378,3.0371,3.034,3.0335,3.0352,3.0351,3.0311,3.0307,3.0303,3.0296,3.0286,3.0284,3.0283,3.0257,3.0257,3.0258,0,0,0,0,0,0,3.0442,3.0438,3.0398,3.0413,3.0407,3.0382,3.0374,3.037,3.0362,3.0336,3.0331,3.0349,3.031,3.0305,3.0292,3.0294,3.0284,3.0282,3.0257,3.0257,3.0257,3.0282,0,0,0,0,0,0,3.0444,3.0438,3.0437,3.0413,3.0406,3.0389,3.0375,3.0369,3.036,3.0358,3.0332,3.0327,3.031,3.0295,3.0291,3.0292,3.0281,3.0256,3.0257,3.0257,3.0281,3.0283,3.0285,0,0,0,0,0,3.0446,3.0445,3.0438,3.0433,3.0405,3.0389,3.0385,3.0367,3.0361,3.0359,3.0342,3.0328,3.0295,3.0294,3.0289,3.0289,3.0256,3.0257,3.0257,3.028,3.0283,3.0285,0,0,0,0,0,0,3.0468,3.0441,3.0433,3.0424,3.041,3.0384,3.0381,3.037,3.0355,3.0353,3.033,3.0324,3.0313,3.03,3.0299,3.0284,3.0274,3.0273,3.0293,3.0295,3.0297,3.03,3.028,0,0,0,0,0,3.0473,3.0463,3.044,3.0434,3.0428,3.0406,3.0398,3.0386,3.0369,3.0362,3.0344,3.0326,3.0312,3.0303,3.0288,3.0279,3.0272,3.0277,3.0279,3.0281,3.028,3.0274,3.0276,3.0259,3.0259,3.0259,0,0,3.0481,3.0465,3.046,3.0439,3.0426,3.0415,3.0401,3.039,3.0382,3.0359,3.0347,3.0333,3.0312,3.0301,3.0295,3.0289,3.0284,3.0281,3.0283,3.0282,3.0275,3.0277,3.0278,3.026,3.026,3.026,0,0,3.049,3.0478,3.0472,3.046,3.0441,3.0427,3.0426,3.0403,3.0393,3.0381,3.0363,3.0353,3.0328,3.0314,3.0304,3.031,3.0296,3.0305,3.0316,3.031,3.0312,3.0313,3.0314,3.0315,3.0305,3.0305,3.0305,0,3.0502,3.0488,3.047,3.0462,3.0453,3.0434,3.0427,3.0415,3.0392,3.0386,3.038,3.035,3.0334,3.032,3.0322,3.0314,3.0311,3.0308,3.0313,3.0314,3.0315,3.0316,3.0317,3.0307,3.0306,3.0306,3.0306,0,3.0503,3.0494,3.0491,3.0471,3.0462,3.0454,3.0435,3.0427,3.0415,3.0402,3.0389,3.037,3.0351,3.0347,3.0334,3.033,3.0328,3.0318,3.0308,3.0318,3.0319,3.0319,3.0308,3.0308,3.0308,3.0307,0,0,3.0525,3.0497,3.0496,3.0487,3.0465,3.0457,3.0448,3.0432,3.0425,3.041,3.0402,3.0382,3.0374,3.0362,3.0348,3.0344,3.0349,3.0334,3.0333,3.0337,3.0343,3.035,3.0351,3.0341,3.0341,3.0341,3.0345,0,3.0531,3.0516,3.0501,3.0491,3.0481,3.0464,3.0456,3.0441,3.0428,3.0417,3.0402,3.0389,3.0379,3.0372,3.0367,3.035,3.035,3.0349,3.0331,3.0331,3.0337,3.0352,3.0359,3.0364,3.0345,3.0345,3.0345,0,3.0536,3.0523,3.0513,3.0493,3.0488,3.0482,3.0466,3.0456,3.0439,3.043,3.0418,3.0403,3.0392,3.0384,3.0368,3.0368,3.036,3.035,3.035,3.0347,3.0338,3.0348,3.0365,3.0365,3.0346,3.0345,3.0345,0,3.0552,3.0533,3.0524,3.0517,3.0493,3.0489,3.0479,3.0462,3.0453,3.0439,3.0433,3.0416,3.0407,3.0395,3.0376,3.0372,3.0362,3.0352,3.0353,3.0353,3.035,3.0351,3.0365,3.0346,3.0346,3.0346,3.0346,0,3.056,3.0554,3.0531,3.0526,3.0519,3.0501,3.0494,3.0482,3.0467,3.0458,3.0441,3.0433,3.0409,3.0398,3.0383,3.0372,3.0368,3.0359,3.0355,3.036,3.0361,3.0354,3.0353,3.0347,3.0347,3.0347,3.0346,0,3.0577,3.0561,3.0551,3.053,3.0525,3.052,3.0502,3.0495,3.0482,3.0471,3.0468,3.0446,3.0432,3.0413,3.0392,3.0382,3.0372,3.0366,3.0379,3.0376,3.0378,3.0378,3.0388,3.0388,3.037,3.037,3.037,0,3.0582,3.0578,3.0557,3.0551,3.0542,3.0532,3.0524,3.0506,3.0497,3.0478,3.0474,3.0459,3.0446,3.0424,3.0405,3.0389,3.0382,3.0387,3.038,3.0385,3.0382,3.0382,3.0381,3.0388,3.0389,3.0389,3.0389,0,3.0594,3.0587,3.0577,3.0564,3.0555,3.0543,3.0531,3.0526,3.0505,3.0497,3.0483,3.0473,3.0453,3.0438,3.042,3.0408,3.0395,3.0392,3.0391,3.0396,3.0403,3.0399,3.0383,3.0391,3.0391,3.0391,3.0391,3.0391,3.0605,3.0601,3.0586,3.0575,3.0564,3.0553,3.0546,3.0533,3.0522,3.0505,3.0495,3.0482,3.0465,3.0439,3.0428,3.0416,3.0411,3.041,3.0409,3.0409,3.0411,3.0406,3.0413,3.0413,3.0413,3.0413,3.0412,0,3.0616,3.0606,3.0596,3.058,3.0571,3.0562,3.0548,3.0541,3.053,3.0516,3.0504,3.0488,3.0474,3.0455,3.0439,3.0433,3.0427,3.043,3.043,3.0427,3.0417,3.0419,3.0435,3.0435,3.0435,3.0435,3.0435,3.0435,3.062,3.0612,3.0603,3.0589,3.0579,3.0567,3.056,3.0549,3.0538,3.0522,3.0511,3.05,3.0483,3.0466,3.0452,3.0447,3.0442,3.0446,3.0439,3.043,3.0428,3.0426,3.0427,3.0445,3.0445,3.045,3.045,3.045]}]]